This is the latest recevied weather packets stored in our database for station/object N2XP-3. If no packets are shown the sender has not sent any weather packets the latest 10 day(s).
| Time | Temp. | Humidity | Pressure | Rain* | Wind** | Luminosity | Snow |
|---|---|---|---|---|---|---|---|
| 1778018187 | 26.11° C | 35% | 1005.5 hPa | 0 mm | 3.13 m/s, 186° | - | - |
| 1778017948 | 26.11° C | 35% | 1005.5 hPa | 0 mm | 3.13 m/s, 210° | - | - |
| 1778017888 | 26.11° C | 35% | 1005.5 hPa | 0 mm | 3.13 m/s, 210° | - | - |
| 1778017583 | 26.11° C | 35% | 1005.5 hPa | 0 mm | 4.02 m/s, 201° | - | - |
| 1778017282 | 26.11° C | 35% | 1005.4 hPa | 0 mm | 2.24 m/s, 283° | - | - |
| 1778016981 | 26.11° C | 36% | 1005.5 hPa | 0 mm | 2.24 m/s, 13° | - | - |
| 1778016676 | 26.11° C | 35% | 1005.5 hPa | 0 mm | 4.02 m/s, 231° | - | - |
| 1778016377 | 26.11° C | 35% | 1005.4 hPa | 0 mm | 3.58 m/s, 229° | - | - |
| 1778015773 | 26.67° C | 34% | 1005.3 hPa | 0 mm | 1.79 m/s, 346° | - | - |
| 1778014860 | 26.67° C | 33% | 1005 hPa | 0 mm | 2.24 m/s, 271° | - | - |
| 1778014611 | 27.22° C | 33% | 1005.1 hPa | 0 mm | 2.24 m/s, 235° | - | - |
| 1778014559 | 27.22° C | 33% | 1005.1 hPa | 0 mm | 2.24 m/s, 235° | - | - |
| 1778014259 | 27.22° C | 33% | 1005.2 hPa | 0 mm | 3.13 m/s, 290° | - | - |
| 1778013955 | 27.78° C | 33% | 1005 hPa | 0 mm | 1.79 m/s, 257° | - | - |
| 1778013356 | 27.78° C | 34% | 1005 hPa | 0 mm | 2.24 m/s, 260° | - | - |
| 1778013051 | 27.78° C | 33% | 1005.1 hPa | 0 mm | 2.68 m/s, 225° | - | - |
| 1778012754 | 27.78° C | 33% | 1005.3 hPa | 0 mm | 2.24 m/s, 271° | - | - |
| 1778012450 | 27.78° C | 32% | 1005.1 hPa | 0 mm | 4.47 m/s, 264° | - | - |
| 1778012363 | 28.33° C | 32% | 1005.2 hPa | 0 mm | 2.68 m/s, 246° | - | - |
| 1778012143 | 28.33° C | 32% | 1005.2 hPa | 0 mm | 4.02 m/s, 304° | - | - |
| 1778011844 | 28.33° C | 32% | 1005.2 hPa | 0 mm | 2.68 m/s, 246° | - | - |
| 1778010430 | 28.89° C | 34% | 1005.3 hPa | 0 mm | 4.02 m/s, 170° | - | - |
| 1778010334 | 28.89° C | 34% | 1005.3 hPa | 0 mm | 4.02 m/s, 170° | - | - |
| 1778010033 | 28.89° C | 34% | 1005.3 hPa | 0 mm | 2.68 m/s, 270° | - | - |
| 1778009734 | 28.89° C | 34% | 1005.5 hPa | 0 mm | 2.68 m/s, 243° | - | - |
* Rain latest hour (hover to see other rain measurements)
** Current wind speed in m/s (hover to see current wind gust speed)